Theta_e
345 344 336 331 334 335 338 342 340 342 342 342 342 342 342 342 342 342 341 341 342 339 338 336 332 332 332 331 329 330 331 331 336 338 338 338 338 338 338 340 340 340 340 340 340 340 340 340 341 340 339 335 328 324 324 324 323 325 329 332 334 335 334 333 333 335 338 340 341 341 339 336 334 331 330 333 337 340 339 340 339 335 336 339 339
344 345 339 331 333 334 337 342 339 341 342 342 342 342 343 342 342 341 341 340 340 338 335 333 331 333 334 334 331 329 327 330 336 338 338 337 337 337 337 339 339 339 339 338 338 339 340 341 340 340 338 333 329 325 324 324 324 324 325 327 330 331 333 333 332 334 338 339 340 340 338 336 334 332 330 330 334 338 339 337 332 331 336 338 338
343 345 341 331 333 334 336 341 339 341 342 343 342 342 342 341 342 340 340 338 337 336 335 332 332 335 336 337 336 335 330 330 335 336 337 337 337 337 337 338 338 339 339 338 339 340 340 340 340 340 337 333 332 330 328 327 327 326 326 326 326 326 328 330 332 334 337 339 340 340 338 334 333 333 331 329 330 333 333 331 326 329 336 338 339
342 344 340 331 333 334 335 339 340 341 341 342 342 342 342 341 341 339 337 334 335 335 335 335 336 337 337 337 338 339 337 334 334 335 336 336 336 336 336 337 337 339 340 339 340 340 340 340 339 339 336 334 333 332 332 330 329 329 329 328 328 327 326 327 328 331 335 339 340 340 340 337 335 334 332 330 329 329 328 327 328 330 332 335 339
341 344 338 331 333 333 335 338 340 341 340 341 341 341 340 340 340 337 334 332 334 335 335 336 337 337 337 337 337 338 338 338 336 337 336 337 337 335 336 335 336 339 340 340 340 340 339 339 338 337 335 335 334 333 332 330 329 328 328 327 328 328 328 328 327 327 331 336 337 338 340 340 339 338 336 335 333 331 330 329 332 332 329 330 335
340 345 339 332 333 333 335 337 339 340 340 340 340 339 339 339 339 336 333 333 335 336 336 336 337 336 337 336 336 337 337 339 339 339 338 338 337 335 335 335 337 339 340 340 339 339 339 338 336 335 335 334 334 333 331 329 329 328 325 323 323 324 326 326 327 327 327 332 334 336 339 340 339 339 339 339 338 336 333 330 332 333 330 328 329
338 344 340 333 332 333 335 336 339 340 340 339 339 338 339 339 339 337 335 336 335 336 336 336 337 336 335 335 336 338 339 339 339 339 339 338 336 334 335 336 338 339 340 339 339 338 337 336 335 334 334 333 333 333 332 331 330 327 319 315 315 315 317 318 321 324 327 331 332 335 337 338 337 338 339 340 339 338 336 332 330 330 331 331 328
337 344 342 334 332 333 334 335 338 340 340 339 339 339 339 339 338 338 337 336 336 336 335 336 336 335 335 336 338 339 339 340 339 339 338 338 335 335 336 337 338 338 339 338 337 336 335 334 333 333 333 332 332 333 332 331 329 320 310 307 307 307 309 311 314 318 326 331 332 334 336 337 338 337 338 339 339 338 337 336 332 329 332 334 330
336 343 343 337 333 332 333 334 337 340 340 338 340 340 339 340 339 338 338 336 336 337 335 335 335 335 336 338 339 339 339 340 339 338 338 337 336 336 336 337 338 338 338 337 336 335 334 333 332 332 332 331 331 331 330 328 320 309 303 302 301 302 304 307 314 320 325 329 331 334 334 336 338 337 337 338 337 336 336 338 335 331 331 332 331
337 340 343 340 336 334 333 333 336 338 339 338 339 339 339 340 338 337 337 335 336 337 335 335 335 337 339 339 339 339 339 339 339 338 337 336 335 336 337 337 337 337 337 336 335 333 333 332 331 330 330 329 328 328 325 318 307 301 301 300 300 300 301 305 317 325 327 328 328 330 332 334 337 336 336 337 335 334 335 337 335 333 333 333 332
337 338 342 342 339 337 334 334 335 337 339 339 339 339 338 338 337 337 336 335 335 337 335 335 337 338 339 339 339 340 339 338 338 338 337 335 335 335 336 336 335 336 336 335 334 332 331 330 330 329 328 327 325 322 315 306 300 300 300 300 300 300 305 312 317 323 327 328 327 327 330 333 335 335 336 336 334 333 333 334 334 334 336 335 334
337 337 340 342 341 340 337 336 336 337 338 339 339 338 339 339 338 338 338 337 335 336 336 336 338 339 339 340 339 339 339 338 338 337 336 335 334 334 335 335 334 335 334 334 333 330 329 329 328 327 326 325 321 314 305 300 300 300 300 300 300 300 309 316 318 321 324 327 329 330 330 332 333 333 333 334 333 332 332 334 335 335 336 335 334
337 336 339 342 342 342 340 338 336 337 339 339 339 339 339 340 340 339 339 339 337 335 335 336 338 340 339 340 340 339 338 338 337 336 335 334 333 332 332 333 333 333 333 332 331 328 327 327 327 325 325 322 314 305 300 300 300 300 300 300 300 301 306 315 319 320 322 325 329 329 329 331 330 331 331 331 331 332 332 333 334 335 334 334 333
335 336 338 341 341 342 341 339 338 337 339 339 339 339 340 340 340 340 339 338 337 335 335 337 338 339 339 340 340 339 338 338 337 336 334 333 331 330 330 330 332 332 331 330 328 327 326 326 325 325 323 317 306 300 299 300 300 300 300 300 300 300 304 313 318 319 322 324 327 328 328 329 329 330 329 329 329 330 331 331 332 333 332 332 332
335 335 338 339 340 340 340 340 339 338 338 339 340 339 339 339 339 339 337 337 336 335 335 337 338 339 339 339 339 338 338 337 336 335 333 332 331 329 328 328 329 329 329 328 327 326 326 326 325 323 319 308 300 299 299 299 299 299 300 300 300 300 305 313 317 319 323 325 325 326 325 326 327 328 328 328 328 328 329 329 330 330 330 330 330
336 335 337 339 339 338 339 339 338 337 337 338 340 339 338 338 338 337 336 335 335 334 335 337 338 338 339 339 338 338 337 336 335 333 332 331 329 328 327 326 327 327 326 326 326 326 325 325 325 321 312 301 299 299 299 299 299 299 299 299 299 300 304 312 317 318 322 325 325 324 322 323 326 327 327 326 327 327 327 327 327 328 328 328 328
337 336 336 338 338 337 337 337 337 335 336 338 339 338 337 337 337 336 336 335 335 335 335 337 338 338 338 338 338 337 336 335 334 332 331 329 328 328 327 325 326 326 325 325 325 325 324 324 323 317 305 298 299 299 299 299 299 299 299 299 299 299 301 306 310 312 319 324 324 324 322 322 324 325 326 325 325 325 325 326 326 326 326 327 326
336 336 335 336 336 337 335 334 334 332 334 337 337 337 335 334 335 335 336 335 335 335 336 337 338 338 337 337 337 337 336 334 333 332 331 329 328 327 326 325 325 325 325 324 324 324 324 324 322 312 301 298 299 298 299 298 299 299 299 299 298 299 299 300 301 307 317 320 321 322 319 320 322 323 324 324 324 324 324 324 324 325 325 325 325
335 336 335 335 335 336 336 334 330 328 331 335 335 335 334 333 334 335 336 336 336 336 337 338 338 338 338 337 337 337 335 333 332 332 330 328 328 326 323 324 325 324 324 324 324 324 323 323 318 307 299 298 299 298 298 298 298 299 298 299 298 298 298 298 300 308 316 318 317 316 315 318 321 322 322 323 323 322 323 323 323 323 324 324 324
334 335 335 334 335 336 336 335 330 327 330 334 334 334 334 334 334 335 336 336 336 337 338 338 338 338 338 338 337 336 335 332 330 330 329 328 328 325 320 320 324 325 324 324 323 323 322 321 314 302 299 298 298 298 298 298 298 298 298 298 298 298 298 297 301 308 314 316 312 310 313 317 320 322 321 320 320 320 321 323 323 323 323 323 323
332 334 335 334 335 335 336 336 334 331 330 334 335 334 334 334 334 334 336 336 336 337 338 338 338 338 337 337 336 335 334 331 329 329 328 328 327 327 320 315 321 325 324 324 323 323 322 320 311 299 299 298 298 298 297 298 297 297 297 297 298 297 297 297 301 307 309 309 304 305 312 315 318 322 320 319 318 318 320 322 322 322 322 322 322
329 331 332 334 334 334 335 335 336 334 332 334 335 335 334 334 334 334 334 336 336 337 337 338 337 337 336 335 334 333 333 330 328 328 327 328 326 328 322 311 318 324 323 323 322 322 321 320 310 299 299 298 298 298 297 298 297 297 297 298 298 296 297 297 298 303 304 301 297 301 307 310 317 321 319 319 319 319 320 321 322 321 321 321 321
328 329 329 331 333 334 334 335 335 335 334 334 334 335 335 334 333 333 333 335 336 336 336 337 336 335 334 332 332 331 331 329 328 328 327 328 326 327 323 312 315 323 323 322 322 321 321 320 310 298 298 298 297 298 297 298 297 298 298 298 297 296 296 296 296 297 298 297 296 299 302 305 315 320 319 319 319 319 320 320 321 321 320 321 320
326 326 326 328 331 333 333 334 334 335 335 334 334 335 335 335 334 333 333 334 335 336 336 336 335 334 333 332 331 331 331 329 328 328 327 327 326 326 324 313 314 322 323 321 322 320 320 319 310 298 298 297 298 299 298 298 298 298 298 298 297 297 296 296 296 296 296 296 296 296 298 301 311 320 319 319 319 318 320 320 320 320 320 320 320
326 325 327 328 328 329 331 333 333 334 334 334 334 334 334 334 334 333 333 333 334 335 335 335 334 333 332 331 331 330 330 328 327 328 327 326 325 325 322 314 314 321 322 320 321 320 319 316 307 298 298 297 297 299 298 298 298 299 299 298 297 297 297 296 296 296 296 296 296 295 297 298 306 317 320 319 319 318 319 319 319 319 319 319 319
327 327 328 327 326 326 328 331 333 334 334 334 334 333 333 333 333 333 333 333 333 334 334 334 333 332 331 330 330 330 329 328 327 327 326 326 324 322 320 315 315 320 322 320 319 319 317 312 303 298 298 297 297 298 298 298 298 299 299 298 298 298 297 297 296 296 297 296 295 295 296 296 301 313 319 319 319 319 318 319 318 318 318 318 318
325 327 328 328 327 326 327 330 332 333 334 333 333 333 333 333 332 333 333 333 333 333 333 333 332 331 330 330 330 329 329 328 327 327 326 325 324 321 319 317 316 319 322 320 317 317 315 310 302 299 297 297 297 297 297 298 298 299 299 298 298 298 297 297 296 296 297 296 295 295 295 296 298 307 316 318 318 318 318 318 318 317 317 317 317
322 325 327 328 328 327 326 328 330 332 333 333 333 333 333 333 332 332 332 332 332 332 332 331 330 329 329 328 329 329 328 327 327 326 325 325 323 321 319 316 316 319 320 320 318 316 315 310 303 299 298 297 297 297 297 298 298 298 298 298 297 298 297 297 296 295 296 296 296 295 295 295 297 303 314 318 317 317 318 317 318 317 317 317 316
320 322 325 327 328 327 326 327 329 331 332 333 333 333 333 332 332 331 331 331 331 331 331 331 329 328 328 329 329 328 327 327 326 326 325 324 322 321 319 316 317 319 318 318 317 316 315 310 304 301 298 297 297 297 297 297 297 298 298 298 297 297 297 297 296 295 295 296 296 295 295 295 297 302 310 316 316 316 317 317 317 316 316 316 316
319 319 322 325 327 327 327 327 327 329 330 331 332 333 332 332 331 331 331 331 331 331 331 331 329 329 329 329 329 328 327 327 326 325 324 323 321 320 319 316 317 319 317 316 316 316 314 310 306 301 298 297 298 297 297 297 297 298 298 298 297 297 297 296 296 295 295 296 296 295 294 294 297 301 306 312 315 315 316 316 316 316 315 315 315
319 319 320 322 325 326 327 327 326 328 329 331 331 332 332 332 331 331 331 331 331 331 331 330 329 329 329 329 329 328 327 326 326 325 324 322 320 319 318 317 317 318 318 316 315 316 314 311 306 301 298 297 297 297 296 296 297 298 298 297 297 296 296 296 295 295 295 295 296 295 295 294 296 300 304 310 314 315 315 315 315 315 315 314 314
318 319 318 319 322 324 326 327 327 327 328 329 330 331 331 331 331 331 330 330 331 331 330 330 330 329 329 329 328 328 326 326 325 324 323 321 319 318 318 318 318 318 319 316 315 316 314 310 305 300 298 297 297 297 296 296 296 297 297 297 296 296 296 296 295 295 295 296 295 294 294 294 296 300 303 307 311 313 314 314 315 315 314 314 313
318 318 319 319 320 322 324 326 327 328 328 328 328 329 330 330 330 330 330 330 330 330 330 330 329 328 328 328 328 327 326 326 325 324 322 320 318 318 317 318 318 319 318 317 315 314 312 308 303 300 298 297 297 297 297 297 297 296 297 296 296 296 295 295 295 294 295 295 295 295 295 294 296 300 304 306 307 310 312 312 312 313 314 313 313
316 316 317 319 318 320 322 325 326 327 328 327 327 328 329 329 329 329 330 329 330 329 329 329 329 328 328 327 327 326 326 325 324 324 322 320 318 317 317 317 318 318 317 316 314 312 309 305 302 299 298 298 298 298 297 297 297 297 297 296 295 295 295 295 295 295 294 294 295 297 297 296 296 299 303 305 306 307 309 309 308 311 313 312 312
313 313 314 317 319 319 321 323 325 326 327 326 327 328 328 328 328 329 329 329 329 329 328 328 328 328 328 327 326 326 325 325 324 323 322 320 318 316 316 316 317 316 315 314 312 310 306 303 301 299 298 298 298 298 297 297 297 297 297 296 295 295 295 294 295 295 294 294 295 297 298 300 300 301 302 304 305 305 306 306 306 308 312 312 311
312 312 312 314 317 319 319 322 323 325 326 326 326 327 327 327 327 328 328 329 329 329 328 328 328 328 328 327 326 325 325 324 324 323 321 319 317 315 315 315 315 314 313 312 310 309 305 302 300 299 298 298 298 298 297 297 297 297 297 295 294 295 295 294 295 295 294 294 295 296 298 301 303 302 301 302 303 304 304 305 305 305 309 311 310
310 310 311 312 315 317 318 320 321 322 324 326 326 326 326 327 327 327 327 328 328 328 328 327 327 327 327 327 325 325 324 324 324 322 321 319 317 315 314 313 313 312 311 310 309 307 305 302 300 299 298 298 298 298 297 297 297 297 296 295 295 295 295 295 295 294 294 294 295 296 297 298 301 301 300 300 300 301 302 303 303 303 305 308 308
309 309 310 311 313 314 316 319 320 320 322 324 325 325 325 326 326 326 326 327 327 327 327 327 327 326 326 326 325 324 323 323 323 322 320 319 317 315 313 312 312 311 310 309 307 306 304 302 300 299 297 297 297 297 297 297 297 297 296 296 295 295 295 296 295 295 294 294 295 296 296 297 297 299 299 298 297 298 299 300 300 300 302 304 305
307 308 309 310 311 313 316 317 317 318 319 321 323 324 324 324 324 325 325 326 326 326 326 326 326 326 325 325 324 323 322 322 322 321 319 318 316 314 312 311 310 310 309 308 306 305 303 302 300 298 297 297 297 297 297 297 297 297 296 296 295 295 295 296 296 295 294 295 296 296 296 296 296 297 297 297 296 295 295 296 296 296 297 298 300
306 306 307 308 310 311 314 315 314 315 317 319 321 322 322 323 323 323 323 324 324 324 325 325 324 324 324 324 323 321 321 321 321 320 319 317 316 314 312 310 309 309 308 307 305 304 303 301 300 298 297 297 297 297 297 297 297 297 296 296 295 295 295 296 296 295 295 295 296 296 296 296 295 295 295 295 295 294 294 294 294 293 293 293 294
305 305 306 307 308 309 311 313 312 313 315 317 319 320 321 321 321 321 321 321 322 322 322 323 323 323 322 322 321 320 320 320 319 319 319 317 316 314 312 310 309 308 307 306 304 304 302 301 300 298 297 297 298 298 297 297 297 296 296 295 294 294 295 295 295 295 295 296 296 296 296 295 295 295 294 294 294 294 293 292 292 292 291 291 290
303 304 304 305 306 308 309 310 311 311 312 314 317 318 318 319 319 319 319 319 320 320 320 320 321 321 320 320 319 319 318 318 318 318 318 317 316 315 312 310 308 307 306 305 304 303 302 300 299 298 297 297 298 298 297 297 297 296 296 296 295 294 294 293 294 294 295 296 295 295 295 294 294 294 294 294 293 293 292 292 291 291 290 290 289
302 302 303 304 305 306 307 307 308 309 309 311 312 314 315 316 316 316 317 318 317 318 318 318 318 318 318 318 317 317 316 316 316 316 317 317 316 315 313 311 308 306 306 304 303 302 301 300 299 298 297 297 298 297 297 297 297 296 296 297 298 297 296 294 292 293 294 295 295 294 294 294 294 293 293 293 292 292 292 291 290 290 289 290 289
301 301 301 302 303 304 305 305 306 307 307 308 309 310 312 313 313 313 314 314 314 314 314 314 314 315 315 315 315 315 314 314 314 314 315 315 315 315 313 311 309 307 306 304 303 302 301 300 299 298 298 297 298 297 297 297 297 297 296 297 298 299 301 298 293 293 294 294 294 294 294 293 293 293 292 292 292 291 291 290 290 289 289 289 289
300 300 300 300 301 302 303 303 304 305 305 306 307 308 309 309 310 310 310 310 310 310 310 310 310 311 311 311 311 311 312 312 312 312 313 313 313 314 313 311 308 306 305 304 303 302 301 300 299 298 298 297 298 297 298 297 296 297 298 299 299 300 304 300 295 294 294 294 294 293 293 294 293 293 293 292 291 291 290 290 289 289 289 289 289
300 299 299 299 299 300 301 301 302 303 304 305 306 306 307 307 308 308 308 308 308 308 309 309 309 309 309 309 309 309 309 309 310 310 310 311 311 312 311 310 308 306 305 304 303 301 300 300 299 298 298 297 297 297 298 297 296 296 297 299 300 301 302 298 298 298 294 292 294 294 293 293 293 293 292 292 291 291 291 290 289 289 288 288 288
299 299 299 298 298 299 299 300 300 302 303 303 304 305 305 306 306 306 306 306 306 306 307 307 307 307 307 307 307 307 307 306 307 307 308 308 308 309 309 309 308 306 304 303 303 301 300 299 299 298 298 297 296 296 297 297 296 296 297 298 299 301 300 298 300 301 298 295 293 293 294 293 293 293 292 292 291 291 291 290 289 288 288 288 288
298 298 298 298 298 298 298 298 298 299 301 302 303 303 304 304 304 305 305 305 305 305 305 305 305 305 305 305 305 305 305 304 304 305 305 306 306 306 307 308 308 306 304 303 303 302 300 299 299 298 298 297 296 296 296 296 296 296 296 297 299 301 300 300 300 300 303 302 295 292 293 293 293 293 292 291 290 291 291 290 289 288 288 288 288
297 297 297 297 297 297 297 297 297 298 298 300 301 302 302 303 303 303 303 303 304 304 304 304 304 304 304 303 303 303 303 303 303 303 303 304 304 304 305 305 306 306 305 303 302 302 301 299 299 299 298 297 297 296 296 296 296 296 296 296 298 300 300 300 300 299 302 304 299 294 292 293 293 292 292 291 290 291 291 290 289 288 288 288 288
296 296 296 296 296 296 297 297 297 297 297 297 298 298 299 300 300 301 301 301 302 302 303 303 303 303 303 303 303 303 302 302 302 301 301 302 302 302 303 303 304 304 304 304 302 301 301 300 299 298 298 297 297 296 296 296 296 296 296 296 297 299 299 298 299 300 300 301 300 296 292 292 293 292 292 291 291 291 291 290 290 289 289 289 288
295 295 295 295 295 295 295 296 296 296 296 296 296 296 296 297 297 298 298 299 300 300 301 301 301 301 302 302 302 302 302 302 301 301 301 300 300 301 301 301 301 302 302 303 303 302 301 300 299 298 298 298 297 297 296 296 296 296 295 295 296 297 298 297 297 299 299 299 301 298 292 292 293 292 293 292 291 291 291 291 290 290 289 289 289
Wind_Speed
11 14 18 24 23 22 20 18 19 17 17 15 15 14 13 13 11 11 10 10 9 9 8 8 8 7 7 7 7 6 7 9 9 8 7 7 7 7 7 7 6 5 4 3 4 5 5 6 7 8 8 7 8 9 10 10 10 10 11 11 11 11 12 12 12 12 12 11 10 10 10 9 10 10 10 10 10 10 10 9 6 6 10 10 9
14 14 18 24 23 23 21 19 19 18 17 15 15 14 13 13 12 11 11 11 10 10 9 9 8 8 8 7 6 6 6 8 8 7 7 7 6 6 7 6 5 5 3 2 3 4 4 5 6 7 6 6 8 8 8 9 9 10 10 10 9 9 9 10 10 11 11 11 10 8 8 8 8 9 9 9 9 9 8 7 6 9 11 10 9
16 15 18 25 24 23 22 19 20 19 18 16 15 14 14 13 12 12 12 11 11 10 10 10 10 9 9 8 7 6 5 7 7 7 7 6 6 6 6 5 5 4 2 2 4 4 5 5 5 4 4 6 7 5 6 6 7 8 8 8 8 8 8 8 8 9 10 9 9 8 7 7 7 7 7 8 7 7 6 6 8 10 11 10 10
17 15 17 26 25 24 23 20 20 19 18 17 16 15 14 14 13 13 12 12 11 11 11 11 10 10 9 9 8 7 5 6 6 6 6 6 6 6 5 5 5 4 2 3 5 5 5 4 3 1 2 5 4 3 4 4 5 5 5 5 5 6 6 6 6 7 7 7 7 6 6 6 7 7 6 7 6 6 6 7 9 10 10 10 9
17 14 18 26 26 25 24 22 21 20 19 18 17 16 15 15 13 13 12 12 12 11 11 11 10 10 9 9 8 8 7 6 5 6 6 6 6 5 5 4 5 4 3 4 5 5 5 3 2 1 1 3 2 2 2 3 5 5 5 4 3 3 3 4 4 5 6 6 5 3 4 5 6 6 6 6 6 6 7 8 9 9 9 9 9
18 14 18 26 26 25 24 23 22 21 20 19 18 17 16 15 13 12 12 12 12 11 11 11 10 9 9 8 7 8 8 7 7 7 6 5 5 3 4 4 4 4 4 5 5 5 4 3 1 1 0 0 1 1 1 2 5 7 7 6 5 4 3 1 1 3 6 6 6 4 4 3 4 4 5 5 5 6 7 8 8 8 7 7 8
18 16 17 25 27 26 25 24 22 21 21 19 18 18 17 15 14 13 13 12 12 11 11 11 10 10 9 8 8 8 8 8 8 7 6 5 4 3 5 5 4 5 5 5 5 4 3 3 0 1 1 1 2 3 3 5 7 9 8 6 5 5 4 3 2 2 4 5 3 5 5 3 3 3 3 4 4 6 7 7 7 7 7 7 7
18 15 16 24 28 28 26 25 24 22 21 21 19 18 17 16 15 14 13 13 12 12 11 11 11 10 10 9 9 9 9 9 9 8 6 5 4 4 6 5 5 5 6 5 4 3 3 2 0 1 1 1 4 5 6 8 10 10 8 6 4 3 2 2 2 4 4 5 2 5 8 4 1 1 2 2 3 4 5 6 6 6 6 6 5
18 15 14 22 27 29 28 26 25 23 22 22 20 19 19 17 16 15 14 14 13 12 12 12 11 11 11 10 10 10 10 10 10 8 7 6 5 5 5 5 6 6 5 4 3 2 2 1 1 1 1 2 6 7 8 9 9 8 6 4 2 1 1 3 6 7 5 4 4 7 8 5 2 2 1 2 2 4 5 6 6 5 5 4 4
17 16 14 19 25 28 28 28 27 25 23 23 22 21 20 18 18 17 16 15 15 13 13 13 12 12 11 11 11 11 11 11 10 9 8 7 7 6 6 4 4 5 4 3 3 2 1 0 1 2 2 3 7 8 8 8 6 4 3 3 3 3 5 7 9 9 7 5 5 6 4 4 2 1 2 3 3 4 4 3 4 4 3 3 4
14 17 14 16 21 25 28 28 28 26 24 24 24 22 21 20 19 18 17 16 16 15 14 14 13 12 12 12 12 12 12 11 10 10 9 8 8 8 8 6 3 4 4 3 3 1 1 2 2 3 3 4 8 8 7 5 2 2 4 5 6 7 9 9 9 9 9 9 9 6 2 5 6 5 5 4 4 5 4 2 2 3 4 5 5
13 16 15 16 18 21 25 27 28 27 25 25 25 24 22 20 20 19 17 17 17 16 15 15 13 13 13 13 13 13 12 11 11 11 10 9 8 9 9 8 6 5 4 5 4 3 3 3 3 3 4 6 9 8 5 1 3 4 6 6 8 9 10 10 9 8 8 10 11 6 2 6 9 7 7 6 5 6 5 3 3 4 5 5 4
14 15 16 17 17 19 22 25 27 28 27 26 26 25 24 22 22 21 19 18 17 17 16 15 14 15 15 14 14 14 13 12 12 11 9 8 7 9 10 11 9 6 5 5 5 5 5 4 4 4 6 8 9 6 1 3 4 5 6 7 8 9 10 10 9 9 10 11 10 6 4 7 8 7 7 6 6 6 5 4 4 4 4 3 3
15 16 17 17 17 18 20 23 25 27 27 26 26 26 25 24 23 22 21 20 19 18 18 17 16 17 16 15 15 14 13 13 12 10 8 6 7 8 8 11 11 7 5 6 6 6 6 5 5 6 7 9 6 2 2 4 5 5 6 6 7 8 10 10 9 10 11 10 7 6 5 6 8 8 6 6 5 5 4 3 2 2 2 2 1
16 18 17 17 17 18 20 22 24 26 28 26 25 25 25 25 24 23 23 22 20 19 19 19 18 18 17 16 16 15 14 13 12 10 8 8 9 9 7 7 9 8 7 7 7 7 7 6 6 7 8 6 3 1 3 4 5 5 6 6 7 7 9 10 9 10 12 10 5 4 5 6 7 7 6 5 5 4 3 3 2 1 1 0 1
15 18 18 17 17 19 21 22 23 25 27 27 26 25 25 25 24 23 23 23 21 21 21 21 20 19 18 17 16 15 14 13 12 11 10 11 12 12 10 7 8 8 8 8 7 7 7 6 8 9 8 4 3 3 4 4 5 5 6 6 7 7 7 10 8 9 12 11 6 4 4 6 7 7 6 5 4 4 3 2 2 1 1 1 1
15 17 20 19 17 18 21 23 24 25 27 28 27 26 25 25 25 24 23 22 22 22 22 22 21 20 19 18 17 16 14 14 14 13 13 13 14 14 12 9 8 8 8 8 7 7 7 7 9 9 7 4 3 3 4 4 5 5 6 6 7 7 6 7 7 7 11 9 6 5 5 6 7 6 5 4 3 3 2 2 2 1 1 1 2
15 18 20 20 18 16 18 22 24 25 28 29 28 26 25 24 25 24 23 22 22 22 23 23 22 20 20 19 19 18 16 15 15 15 14 15 15 14 13 11 10 9 9 9 8 8 8 9 11 9 6 5 4 4 4 4 5 5 6 7 7 8 6 6 6 8 9 5 4 4 4 6 6 5 4 4 3 3 2 2 2 1 0 1 2
15 17 18 19 19 17 16 20 23 25 29 30 29 27 25 24 24 24 24 23 22 23 22 22 22 21 20 20 20 19 18 17 15 16 16 17 16 14 14 13 11 11 11 10 10 10 10 10 11 9 6 6 5 4 4 5 5 6 6 7 7 8 7 7 8 9 8 4 3 3 3 5 5 3 3 3 2 2 2 1 1 1 0 1 1
15 17 18 18 19 19 17 18 21 24 29 30 29 28 26 25 24 25 24 23 23 23 22 22 22 21 20 20 20 20 19 18 17 17 18 18 17 15 14 14 12 11 12 11 11 11 11 10 11 9 8 7 6 5 5 5 5 6 6 7 7 7 7 8 8 8 7 5 2 2 4 6 4 3 2 1 1 1 1 1 1 1 1 1 2
16 18 18 19 19 20 20 19 20 22 27 28 27 27 27 26 25 25 24 24 24 23 23 23 22 21 21 20 20 20 19 18 17 18 19 19 18 17 16 15 13 12 13 12 12 12 11 10 11 10 9 7 5 5 4 4 5 5 5 6 6 6 7 7 8 7 6 5 2 2 5 5 4 4 3 2 2 2 2 2 2 2 3 3 3
17 18 19 21 21 22 22 21 21 22 24 26 26 26 26 27 27 27 27 26 26 25 25 25 24 23 22 21 21 20 20 19 18 19 19 19 19 18 17 15 14 14 14 14 14 13 12 11 11 11 8 6 5 5 4 3 4 4 4 4 4 6 5 5 6 6 4 2 2 3 4 4 4 4 3 3 3 3 3 3 4 3 4 4 4
17 19 21 23 23 24 25 24 24 23 24 25 26 26 25 26 26 28 29 28 28 28 27 27 26 25 24 23 22 21 20 20 19 20 20 20 20 19 18 15 15 15 16 16 15 14 12 11 12 11 8 6 6 5 4 3 3 3 2 2 4 4 4 3 4 3 2 2 3 3 3 4 5 4 3 3 3 3 3 3 4 4 4 4 4
20 21 21 23 24 25 26 28 27 25 26 27 27 27 26 25 25 27 29 31 31 30 30 30 29 27 26 25 24 23 21 20 19 19 20 21 20 19 19 17 15 16 17 17 16 15 13 12 13 12 8 8 8 6 5 4 3 2 1 2 2 2 2 2 2 1 1 2 2 3 2 3 5 4 3 3 3 3 3 3 4 4 4 4 4
19 20 21 22 25 27 28 29 29 28 28 28 28 28 27 26 26 27 29 31 32 33 33 32 31 29 27 26 25 24 22 20 19 18 19 20 20 19 19 18 18 18 19 19 18 17 15 15 15 12 10 10 9 7 6 5 4 3 2 1 1 0 1 1 1 1 1 2 2 2 2 2 4 5 3 3 3 3 3 3 4 4 4 4 4
16 20 22 23 24 26 28 29 30 31 30 30 29 29 29 28 26 26 28 30 31 32 33 33 32 30 28 26 24 23 23 22 22 21 20 21 21 19 19 19 20 21 20 21 20 18 18 18 16 13 12 11 10 8 7 6 5 5 4 3 2 2 1 0 0 2 1 2 1 1 2 2 4 5 4 3 3 3 3 4 4 3 4 4 4
17 20 22 23 24 25 27 29 30 31 31 31 30 29 30 30 28 26 26 28 29 30 31 32 33 32 30 28 26 24 24 24 23 23 23 22 22 20 20 21 22 22 22 22 20 18 19 18 17 14 13 13 12 11 9 8 7 7 5 4 4 3 3 2 1 2 2 1 0 0 2 2 4 4 4 3 3 3 3 4 3 3 3 3 3
18 20 21 22 24 25 27 29 31 32 32 31 31 30 30 30 29 27 26 26 28 29 29 30 32 32 31 29 28 25 25 26 25 24 24 23 23 21 20 21 24 23 23 23 20 18 18 18 18 16 15 15 14 14 12 10 9 8 7 5 5 4 4 3 1 2 3 2 1 1 1 2 4 5 4 3 2 3 3 3 3 3 3 3 3
19 21 22 23 24 24 26 29 31 32 32 32 32 31 30 30 30 29 27 27 28 29 28 28 30 31 31 31 30 28 27 27 27 26 24 24 23 21 20 21 24 23 23 23 21 20 19 19 19 17 17 17 16 14 13 11 10 9 8 7 6 5 5 4 2 2 3 3 1 1 2 2 4 5 5 3 2 2 2 3 3 3 3 2 2
22 24 24 24 24 24 26 28 30 31 32 33 34 33 31 31 31 31 29 28 29 28 27 28 28 29 30 31 31 31 28 28 28 26 24 25 24 22 21 22 24 24 23 22 22 22 21 21 20 18 19 19 17 15 13 12 11 11 10 8 7 6 6 5 4 3 4 4 2 2 3 3 4 5 6 4 2 2 2 3 3 3 3 2 2
23 23 24 24 24 24 25 27 29 31 31 32 34 34 32 31 32 32 31 30 30 29 28 28 28 29 30 31 32 32 30 29 29 27 25 25 26 25 23 23 24 25 24 23 23 24 23 22 20 19 20 19 16 15 14 13 12 12 10 8 8 7 7 6 5 4 5 5 4 3 3 4 6 6 6 7 6 4 3 3 2 3 3 3 4
22 23 23 22 22 23 24 26 27 29 31 32 32 33 32 32 31 31 32 31 31 31 29 28 29 29 30 31 32 33 31 30 29 28 26 26 28 27 25 24 25 26 25 24 25 25 23 22 20 19 18 17 15 14 14 13 13 12 10 9 9 8 8 7 6 5 6 6 4 4 5 5 7 7 8 8 8 8 6 5 4 5 5 5 5
18 18 20 20 20 21 22 23 25 28 29 30 30 31 31 31 30 30 31 32 31 32 32 30 30 30 30 31 33 34 34 31 30 28 27 28 28 28 27 27 26 27 25 25 26 24 23 22 20 19 18 17 16 15 14 13 13 13 11 10 10 10 9 8 8 7 7 6 5 4 5 6 8 8 9 9 9 10 9 8 8 9 7 6 7
12 12 13 15 16 18 19 20 23 25 27 28 27 28 29 29 28 28 29 30 31 31 33 32 30 30 30 31 32 34 35 33 31 29 29 29 29 29 29 29 28 27 27 27 27 25 24 24 22 21 19 19 18 17 16 14 14 13 13 12 11 11 10 9 9 8 7 7 6 6 5 6 8 9 10 10 10 10 11 10 10 10 10 9 9
13 11 10 9 10 12 15 17 19 21 23 25 25 24 25 25 25 25 25 27 28 29 31 32 30 30 30 30 32 34 35 35 32 30 30 31 31 31 30 30 29 28 28 28 28 26 26 25 25 24 22 21 20 19 17 16 15 14 14 12 12 11 10 10 10 8 7 8 8 7 6 5 7 9 11 11 11 11 11 11 10 10 11 12 11
18 13 10 7 5 8 10 13 15 17 20 22 23 21 19 20 21 22 22 23 24 26 27 28 28 28 29 30 31 33 34 34 33 31 31 32 31 31 31 31 30 29 29 29 29 28 28 27 26 25 24 23 21 19 18 18 16 15 14 12 12 11 10 10 10 9 8 9 9 9 8 9 9 9 10 13 13 12 12 11 11 10 11 13 12
21 18 14 9 3 3 6 9 11 12 15 17 19 20 16 16 17 17 18 19 20 22 23 24 25 25 26 28 29 32 33 33 32 31 31 32 32 31 31 31 31 31 30 30 30 29 29 28 26 26 26 24 22 21 19 18 17 16 14 13 13 12 11 11 10 10 10 9 10 10 11 12 12 10 11 13 13 14 14 13 12 11 12 12 12
24 22 18 13 9 5 2 4 6 6 9 11 13 16 15 13 13 13 14 15 17 19 19 19 21 22 23 24 26 28 31 32 32 31 31 31 31 30 30 30 31 31 31 30 30 29 29 28 27 26 26 25 24 23 21 20 18 17 16 15 14 12 11 11 11 10 10 11 11 11 13 14 14 13 13 13 13 13 14 14 14 13 13 13 12
27 25 23 19 14 11 7 3 1 2 5 6 6 10 12 11 11 11 11 12 13 14 16 16 17 19 19 20 21 23 27 30 31 31 30 30 30 29 29 29 31 31 31 31 30 29 29 28 28 27 26 25 25 24 23 21 19 17 17 15 14 13 13 12 12 11 10 11 12 13 14 14 14 16 16 15 14 12 13 14 15 14 14 13 13
28 27 27 24 21 17 11 7 4 1 3 4 4 6 8 8 8 8 9 10 11 11 13 14 14 15 16 17 18 19 22 26 29 30 30 29 29 29 28 28 30 31 31 31 31 31 31 30 30 29 27 25 23 24 24 23 20 15 14 14 13 13 14 14 13 11 10 12 14 14 14 14 14 16 16 16 15 13 13 13 15 14 14 14 13
30 30 29 27 25 22 17 13 8 4 3 3 4 5 6 6 6 7 8 8 10 11 11 13 13 13 13 14 15 16 18 22 26 29 30 29 29 29 28 28 29 30 32 32 32 32 32 32 30 30 30 27 25 25 27 26 21 14 10 10 12 13 13 14 13 13 13 14 15 15 15 15 15 15 15 16 16 15 14 13 14 14 13 13 13
30 30 29 28 26 24 23 19 13 10 7 5 5 4 3 3 2 3 4 5 6 8 10 11 13 14 14 14 15 16 17 19 23 27 30 30 30 29 29 29 29 29 30 31 30 30 31 31 30 29 29 29 27 28 31 27 21 17 12 7 5 9 11 12 14 16 16 16 16 15 15 16 16 15 16 17 17 16 15 14 15 14 13 11 11
29 30 29 28 27 26 25 21 18 16 12 8 8 7 5 4 3 3 3 2 2 3 6 6 9 12 13 14 14 16 16 17 20 23 27 29 31 31 30 30 30 29 30 30 30 30 31 31 31 31 29 28 26 28 34 31 23 19 12 5 4 4 5 10 16 19 18 17 17 15 16 17 17 16 16 17 18 17 16 15 16 15 13 12 12
30 31 31 28 27 26 25 22 19 19 16 11 10 9 7 5 4 4 4 2 2 1 2 3 5 8 10 12 13 14 14 16 18 20 23 26 29 31 30 31 31 30 31 32 32 31 32 33 33 34 32 28 24 26 33 33 28 21 10 2 3 4 3 8 14 17 19 19 18 18 18 18 18 18 18 18 18 18 17 17 17 16 15 13 13
30 30 30 28 26 26 24 23 21 20 19 14 12 11 9 8 7 7 7 5 3 3 4 4 4 6 7 9 11 12 13 15 16 18 20 23 26 29 29 30 30 29 31 32 33 33 34 35 35 36 35 33 29 28 31 33 32 29 19 7 4 3 4 6 8 10 17 20 20 20 20 20 20 20 19 19 19 18 18 19 18 17 16 15 15
29 28 28 28 27 25 24 24 23 21 20 17 14 14 13 12 12 12 11 9 8 7 6 4 2 3 4 6 8 9 10 12 15 16 18 20 23 26 27 28 28 28 29 31 32 32 33 35 36 37 37 37 34 28 30 34 34 33 29 20 11 6 5 9 6 2 10 17 19 20 21 21 22 22 21 20 20 20 20 20 20 19 17 17 17
27 27 29 30 29 27 25 24 23 22 21 19 16 16 17 16 14 13 12 12 12 11 10 8 4 3 3 3 5 8 8 9 11 14 15 17 19 22 24 27 27 26 26 29 31 31 32 34 35 37 37 37 35 30 30 35 33 31 33 30 20 10 9 12 7 3 3 9 16 20 21 21 21 23 23 23 22 22 23 22 20 20 19 17 18
27 28 29 29 29 27 24 23 23 23 21 19 18 19 19 17 16 14 13 13 13 11 10 9 7 5 4 5 6 7 8 9 9 11 13 15 16 18 21 24 26 26 25 26 29 30 31 31 33 36 36 36 35 33 32 34 32 31 34 33 25 17 15 16 13 10 6 2 9 14 19 22 22 24 24 24 26 26 25 25 24 23 21 19 20
27 27 27 27 26 25 24 24 26 25 22 20 19 19 18 17 16 15 14 13 12 11 10 9 9 8 7 6 6 7 8 9 9 9 10 13 14 16 17 20 24 26 26 26 27 29 30 30 31 33 36 36 36 34 33 34 35 34 34 33 28 21 19 17 15 14 8 4 5 6 12 16 18 25 27 26 28 28 27 27 26 25 22 21 21
26 26 25 25 24 24 25 28 29 27 25 23 23 22 20 19 17 16 15 13 12 11 10 10 11 11 10 9 8 7 7 9 9 9 9 10 12 14 15 17 20 23 26 26 26 27 29 30 30 32 35 37 37 36 34 34 35 36 35 33 29 23 17 13 14 15 10 6 6 5 11 15 13 22 30 31 30 29 28 28 27 27 24 22 22
25 25 25 24 25 26 28 30 28 26 26 26 28 28 26 23 20 17 16 15 13 12 12 13 13 12 12 12 10 9 8 8 9 10 10 10 11 12 14 15 17 20 23 25 27 28 29 30 30 31 33 36 37 37 36 34 33 34 35 34 33 30 25 19 20 23 15 7 6 4 11 19 17 17 25 32 34 30 28 29 29 29 27 24 23
Wind_Direction
175 187 184 184 183 180 174 167 169 167 169 169 170 171 171 172 171 172 174 172 167 172 173 167 165 159 157 159 159 153 145 137 136 137 136 137 136 129 123 116 107 104 100 111 107 97 97 96 99 97 85 78 86 90 90 87 84 82 80 76 72 71 69 70 72 72 74 78 85 84 81 83 83 82 85 90 93 86 85 87 76 66 72 68 66
174 189 184 184 185 181 177 170 170 169 169 171 173 175 174 175 174 179 182 177 173 176 173 171 166 158 156 152 152 148 145 143 142 144 144 144 143 139 131 124 116 111 108 123 112 106 109 107 100 97 92 88 92 94 92 88 87 83 80 80 77 76 71 71 71 74 79 77 75 74 77 85 89 87 85 87 95 97 95 90 80 73 71 67 65
171 184 185 183 186 183 179 172 172 172 170 172 175 176 177 178 180 185 185 182 179 177 172 169 165 161 158 152 152 149 148 150 152 155 154 154 150 148 142 133 127 124 133 130 123 126 122 118 108 103 94 86 88 84 85 83 81 78 75 73 72 73 72 72 72 80 82 80 80 75 77 86 88 89 90 88 92 99 97 81 76 77 75 71 64
173 181 184 182 186 185 180 175 174 174 173 174 177 178 180 182 185 189 187 185 180 175 172 169 169 167 164 163 163 164 168 166 167 169 166 167 166 164 157 149 148 151 159 138 131 127 119 121 121 127 79 78 78 61 65 67 64 59 53 53 57 59 64 72 74 85 88 91 87 76 80 80 80 83 85 87 88 87 81 76 74 75 76 81 76
171 180 184 182 184 186 183 178 176 176 176 177 179 179 182 186 187 191 187 180 177 176 176 173 175 174 173 174 176 179 180 178 176 173 171 173 175 175 171 168 167 164 155 137 131 124 121 122 120 267 48 69 54 48 54 42 36 20 7 359 356 5 27 57 68 85 99 104 80 78 103 75 80 81 78 80 81 80 72 73 73 70 70 80 86
168 181 185 181 185 186 186 181 178 178 178 180 182 182 183 187 187 190 186 177 177 178 179 178 180 181 182 183 186 189 184 183 182 175 170 170 172 174 176 172 169 164 154 142 125 118 119 111 89 283 118 96 314 327 311 355 357 351 342 328 319 307 303 320 45 82 99 109 75 86 134 64 68 75 75 80 78 81 70 69 73 73 68 70 78
168 183 185 182 187 186 188 184 180 180 180 182 184 185 184 187 189 190 188 182 181 182 183 182 184 185 185 185 188 193 187 186 187 175 165 166 171 172 167 162 172 167 148 133 114 110 109 101 87 279 126 210 284 301 296 312 326 334 333 323 313 301 287 266 243 140 114 122 67 79 113 30 21 46 75 85 74 81 70 67 72 77 72 63 68
170 184 186 184 189 188 190 187 183 182 183 184 185 187 187 190 191 190 192 187 186 187 186 185 185 184 186 187 191 197 191 187 183 167 159 158 161 164 162 168 176 159 133 120 108 106 103 106 170 228 145 285 300 308 308 315 322 329 331 327 317 303 282 239 177 159 145 142 135 109 103 61 26 83 95 97 76 84 76 74 77 78 80 71 62
174 178 188 187 191 191 191 189 186 184 185 186 186 189 188 190 192 191 193 190 188 189 188 188 188 187 190 192 195 199 193 187 176 159 158 158 156 154 153 174 166 143 134 128 118 101 93 102 173 221 247 296 305 308 311 316 322 329 333 334 337 331 151 142 130 127 133 153 174 147 107 69 127 148 97 93 79 85 83 83 75 66 80 83 65
179 175 188 190 193 195 193 192 188 186 186 187 189 190 191 192 194 192 195 194 190 191 192 190 191 194 196 199 197 197 193 183 170 160 169 174 171 166 148 159 171 158 161 152 141 118 102 296 238 251 258 281 302 307 309 316 324 340 16 52 74 94 109 124 131 122 121 139 151 148 114 66 114 136 97 87 78 85 87 84 54 44 70 99 94
185 177 187 194 198 199 195 194 191 189 187 188 191 191 194 196 197 195 197 199 195 194 195 194 195 199 201 203 197 194 191 179 172 171 187 195 186 190 174 164 195 203 189 180 183 189 231 256 257 263 246 267 296 303 305 318 353 68 83 87 92 103 113 119 129 129 129 131 123 121 103 108 115 103 98 85 74 78 84 86 48 57 84 97 98
189 179 185 198 202 204 199 197 194 191 189 190 193 193 194 196 197 197 199 201 201 198 197 198 198 203 205 203 196 191 185 178 182 181 197 209 199 211 209 194 197 206 205 203 208 231 248 242 243 245 232 267 291 297 302 338 104 99 95 93 97 111 122 120 121 129 133 130 120 102 79 120 115 101 100 91 79 73 76 89 95 98 94 90 81
186 179 187 201 204 206 203 201 198 194 192 192 195 195 195 196 198 199 200 202 205 204 199 200 201 205 205 200 194 189 183 184 190 192 209 222 221 230 232 227 215 202 215 217 218 232 234 229 232 224 234 272 291 293 299 115 108 99 96 95 101 113 122 117 119 125 126 128 121 108 110 124 113 98 97 91 82 78 81 92 112 114 100 93 80
184 179 190 202 202 204 204 204 203 199 196 196 197 197 198 199 200 201 202 204 207 207 201 200 204 207 203 198 195 188 188 191 194 206 225 228 236 241 233 227 219 210 222 223 221 220 216 221 222 218 247 279 289 276 123 110 100 97 94 95 101 111 116 109 112 118 118 121 125 133 131 129 115 96 90 89 86 87 88 94 112 119 105 102 86
187 183 188 202 204 203 205 207 207 204 201 199 200 201 202 202 202 203 206 207 207 207 202 200 205 208 203 198 195 191 194 196 200 213 221 216 229 237 223 211 209 214 223 222 216 209 209 215 212 225 261 281 262 167 117 105 98 98 95 98 102 110 115 106 106 116 117 109 110 154 151 144 126 96 88 92 89 92 91 90 92 108 88 18 310
191 189 187 198 208 207 205 209 209 208 205 203 204 205 206 206 206 207 208 208 207 205 201 201 205 208 205 199 195 196 200 200 206 213 212 217 229 235 236 222 206 212 214 213 211 207 210 208 212 237 264 254 191 144 114 106 101 100 100 103 105 111 119 118 121 128 126 111 107 156 157 154 138 102 92 94 92 90 86 83 78 83 61 6 314
193 197 192 195 206 212 209 210 210 210 208 206 207 208 210 211 211 211 211 210 207 205 203 203 205 208 206 201 198 198 201 207 215 218 222 229 233 236 237 222 205 211 208 209 211 209 210 205 219 244 253 215 182 146 126 118 114 110 110 109 110 112 119 128 129 132 129 120 133 156 147 152 138 100 91 97 94 82 85 88 71 63 45 320 313
196 204 200 199 203 214 214 212 212 211 210 208 208 211 213 214 214 213 213 211 208 207 206 206 207 207 204 200 200 199 201 214 223 225 230 235 236 234 223 206 202 209 206 209 210 208 207 205 227 244 236 207 185 159 145 139 132 125 119 115 117 117 123 127 119 124 123 120 167 165 146 154 141 104 91 92 94 92 91 93 89 89 28 331 337
201 208 207 205 203 210 217 216 214 212 210 207 209 211 214 215 215 214 213 212 211 211 209 208 208 206 202 200 203 205 207 218 225 227 231 235 240 238 217 199 199 205 204 206 205 206 202 204 230 239 221 207 188 175 164 157 142 131 126 119 122 124 127 127 125 129 126 139 197 181 151 148 136 106 97 92 96 99 94 99 117 132 74 50 29
205 211 212 211 206 206 212 216 215 213 209 207 210 211 214 214 213 213 213 214 213 213 210 208 208 206 204 205 210 214 217 222 226 226 229 234 240 242 227 204 197 202 202 201 199 200 194 202 229 229 210 204 189 186 175 161 144 130 125 120 123 124 125 129 132 131 136 168 199 171 160 141 111 82 86 89 71 48 76 102 111 111 104 92 77
212 213 212 211 208 206 207 213 215 212 208 207 211 213 215 214 213 213 211 213 213 212 210 207 208 209 211 213 218 221 223 225 225 226 229 235 239 242 238 214 197 199 198 196 195 195 190 199 225 222 207 202 189 190 178 154 135 123 117 118 119 113 121 134 137 134 150 180 196 158 166 143 101 74 70 59 49 57 77 94 100 105 98 95 93
219 219 215 211 210 209 206 207 212 213 209 207 210 214 217 216 216 215 212 212 212 211 211 210 211 213 217 220 224 226 228 228 226 229 231 235 239 240 241 224 200 195 195 193 192 193 190 193 219 221 205 200 196 195 181 150 129 117 110 109 99 99 113 128 133 145 160 160 135 155 170 146 101 71 71 68 70 80 86 93 93 94 93 94 96
220 223 221 215 212 210 208 206 208 212 210 207 208 210 214 217 218 218 215 213 211 212 212 213 215 217 221 224 227 228 229 231 231 233 235 236 238 238 240 230 204 195 197 195 192 193 188 187 215 221 202 202 209 201 181 158 142 124 113 84 72 85 103 109 119 144 143 80 108 145 170 151 108 80 80 85 86 88 92 95 91 89 88 90 91
223 227 227 220 214 212 211 209 207 208 209 208 208 208 211 217 218 219 218 217 215 214 215 216 218 220 223 224 226 227 227 230 232 236 237 235 235 235 236 228 205 197 201 199 193 194 189 189 213 217 200 208 216 203 183 176 173 159 153 91 76 79 86 83 83 89 79 69 100 133 161 165 118 99 95 100 102 98 100 100 96 92 87 85 88
228 225 224 222 220 217 214 212 209 207 208 208 208 208 209 215 218 219 219 220 219 218 218 219 220 221 223 224 223 222 222 224 226 229 229 228 230 230 227 220 205 199 203 202 197 196 195 201 214 212 201 210 216 208 195 193 191 188 201 159 140 196 69 60 32 352 41 71 85 119 150 178 133 111 104 111 108 104 110 110 106 98 91 87 83
225 215 218 223 225 222 217 213 210 208 208 207 207 207 207 210 215 217 218 219 221 222 221 220 220 219 220 222 221 218 218 218 219 220 221 223 227 226 219 211 205 202 204 206 202 201 206 212 218 211 207 212 214 214 206 200 198 199 210 208 219 231 241 253 343 305 355 64 67 118 148 182 158 131 120 121 117 116 121 121 120 111 100 94 89
223 217 220 223 224 223 218 214 211 209 210 209 207 208 208 209 211 213 216 218 219 221 222 221 219 218 218 219 220 215 213 214 214 217 219 221 224 223 216 208 204 205 205 207 207 208 213 219 220 213 212 215 214 214 206 203 204 207 212 212 223 229 237 248 263 285 312 25 343 176 169 185 184 156 132 127 132 133 134 133 129 124 112 98 99
228 224 224 221 223 223 219 215 213 210 209 209 208 209 210 211 211 211 215 216 214 217 220 220 219 217 216 215 215 213 209 209 211 216 217 216 218 218 215 206 203 206 208 208 209 213 217 222 223 214 212 216 217 214 208 208 211 215 216 213 219 226 233 240 248 280 290 280 259 259 206 189 202 177 144 133 146 147 148 150 143 139 136 113 108
229 228 227 223 223 224 220 216 214 212 210 209 208 209 210 211 211 210 213 213 212 215 217 218 217 216 214 211 211 210 207 207 209 214 214 209 210 212 211 204 201 205 210 207 206 215 217 220 224 214 211 218 219 216 212 212 215 219 219 218 221 224 229 232 231 249 271 275 267 262 239 197 211 196 165 144 146 165 167 170 166 161 156 135 122
233 231 230 228 225 224 220 217 216 214 211 209 209 209 210 211 212 211 211 212 211 212 214 214 214 212 211 209 209 209 206 206 207 211 213 206 203 206 206 201 199 205 212 206 203 214 216 217 220 214 213 219 220 217 215 213 216 220 219 219 223 224 227 225 225 229 249 266 262 247 244 212 208 210 185 155 131 163 179 185 181 178 176 170 155
239 235 234 233 228 224 221 219 218 215 212 210 210 209 209 210 212 213 211 212 211 210 211 212 211 210 209 209 208 208 206 206 207 210 212 206 201 202 202 200 200 205 212 207 203 213 216 215 217 215 215 219 220 218 217 215 215 221 221 219 221 224 226 226 227 228 237 255 254 229 229 216 207 210 197 172 152 139 140 155 166 184 199 201 182
245 244 244 239 232 227 223 221 218 215 213 212 211 210 210 211 212 213 212 211 211 210 210 211 210 210 210 209 208 207 207 207 207 208 210 205 201 202 200 199 200 204 209 206 206 212 214 215 216 215 215 217 218 216 216 217 217 221 222 220 222 224 227 228 227 225 230 244 250 229 216 210 206 206 205 194 177 159 142 134 149 167 187 204 198
253 258 254 245 240 234 226 223 219 216 215 213 214 213 212 213 213 214 212 211 211 211 210 211 210 210 210 210 209 208 207 207 206 207 208 205 202 202 199 199 200 203 206 205 207 211 211 212 212 211 210 209 211 210 209 215 219 221 222 220 222 224 227 229 228 224 225 231 234 227 214 205 204 205 207 208 200 187 174 168 173 177 178 182 189
286 284 267 249 244 241 231 224 220 217 218 216 215 216 214 213 214 215 214 212 213 213 212 212 211 210 210 211 210 209 208 206 205 206 207 206 205 203 201 200 201 204 205 206 208 209 208 208 207 206 204 205 208 207 205 210 216 219 220 220 222 224 226 228 231 228 220 215 213 216 217 208 205 206 208 212 212 208 200 194 192 189 180 163 156
334 317 298 268 244 241 234 224 220 219 219 218 216 217 217 216 216 217 217 215 215 215 214 213 213 211 211 211 210 209 208 207 206 207 207 207 207 205 204 203 204 206 207 209 209 208 208 208 208 204 200 201 207 206 203 208 213 218 219 217 219 223 222 224 230 229 217 208 204 206 207 205 210 211 212 216 217 216 214 213 210 199 189 174 158
1 356 346 317 254 240 239 227 222 222 220 220 217 217 219 217 217 218 219 218 217 217 216 215 215 215 215 215 213 211 209 207 206 208 208 208 208 207 207 206 206 207 209 210 210 209 208 209 209 207 202 200 205 206 202 207 211 214 217 213 214 219 219 224 230 228 219 212 210 205 196 196 211 219 220 220 219 221 222 222 223 215 202 192 180
12 12 11 5 344 264 255 232 226 226 224 224 219 217 219 216 215 218 219 220 220 219 217 217 217 218 219 219 218 214 211 208 207 211 211 210 211 210 209 208 208 209 210 211 211 211 210 209 208 208 208 204 205 204 198 203 207 208 209 208 211 214 217 226 232 230 222 215 214 211 204 204 210 216 221 224 222 222 225 225 226 224 215 207 199
22 22 24 28 36 32 9 207 215 228 226 228 224 219 219 217 215 217 219 220 222 220 218 220 220 220 221 222 222 218 215 212 211 214 215 213 213 213 211 210 210 210 212 213 212 211 211 211 209 208 210 208 206 202 196 199 203 203 204 206 211 207 210 224 229 229 223 216 216 214 213 214 213 213 218 228 231 225 225 227 228 226 222 217 214
27 27 30 35 39 41 52 96 176 229 218 220 219 214 215 219 218 217 220 219 220 219 217 221 222 222 224 226 227 224 219 217 216 217 216 215 213 214 215 214 213 212 212 213 211 209 209 211 211 208 207 209 210 205 198 197 198 200 202 203 207 204 206 217 222 227 223 216 217 218 220 221 219 218 220 229 238 235 227 228 229 229 228 226 224
32 30 32 34 36 39 49 55 42 69 177 189 188 192 201 210 215 218 223 222 222 223 220 221 223 223 225 228 231 229 223 220 219 219 218 217 216 216 217 217 216 214 213 213 210 209 210 210 211 209 202 202 208 205 198 197 189 185 195 200 203 204 208 215 219 221 218 218 218 217 221 224 224 223 224 229 236 240 235 233 236 234 233 234 232
34 33 33 32 34 38 45 49 46 53 92 134 158 171 180 193 207 218 226 228 229 230 228 225 225 227 227 230 233 231 226 222 221 221 221 220 220 220 219 219 219 216 217 218 216 214 213 212 210 209 203 196 196 198 198 194 180 168 178 198 208 213 217 221 222 215 210 217 221 219 220 224 228 228 228 232 234 238 238 239 243 242 238 236 234
31 33 34 33 36 39 40 43 46 44 53 79 98 120 141 160 181 203 217 224 228 229 231 231 229 231 233 233 235 234 231 228 226 225 224 224 223 222 221 223 222 219 221 222 220 217 214 212 208 206 204 200 196 196 196 191 182 178 173 167 203 226 230 231 230 221 214 219 224 224 221 222 229 231 230 234 235 237 239 238 243 246 244 235 230
31 32 33 34 36 38 37 39 43 43 43 53 65 71 82 96 93 68 87 132 127 174 200 214 222 227 233 236 238 240 239 236 233 230 229 228 226 225 225 226 225 222 222 221 220 217 214 212 209 207 203 200 200 198 199 198 190 179 167 163 187 199 237 237 229 223 217 219 222 219 217 220 227 231 231 234 236 237 238 237 238 244 245 238 232
32 30 30 32 33 35 37 38 42 43 40 41 51 56 61 71 71 50 53 74 78 118 214 229 231 229 231 237 241 243 244 244 241 237 235 234 232 230 228 228 228 225 224 223 219 217 215 212 211 210 203 197 197 198 202 204 198 184 166 145 163 161 234 225 215 216 213 216 218 214 215 219 223 226 229 233 237 237 235 235 237 240 240 237 236
33 30 30 30 32 35 38 40 44 45 40 40 51 56 54 51 46 42 41 37 24 346 306 287 264 255 248 249 254 252 250 249 248 245 243 241 238 235 232 231 231 229 226 225 223 221 219 215 212 211 206 202 200 198 201 205 207 204 196 174 148 187 231 184 182 206 209 211 216 216 218 221 222 224 227 230 235 236 233 233 235 236 234 231 235
34 33 34 34 35 37 38 39 43 45 43 42 52 60 58 51 44 40 36 29 24 18 12 14 324 294 283 265 263 261 258 254 252 251 250 247 244 241 237 234 235 234 230 229 228 225 222 219 216 213 210 210 205 198 199 204 208 209 208 209 209 210 184 156 145 178 208 214 218 217 220 222 224 226 227 228 230 232 233 233 233 230 227 224 229
37 38 39 38 38 39 39 38 40 44 46 46 52 59 59 52 46 42 37 31 26 21 19 22 15 351 334 299 279 273 271 265 257 255 253 251 250 247 243 240 239 240 237 233 231 229 227 225 221 217 215 213 209 202 202 204 207 209 211 216 222 221 189 174 171 154 179 222 222 219 222 225 227 229 229 226 225 228 232 233 231 226 222 219 224
41 41 42 41 42 43 43 42 43 46 48 50 55 59 58 52 46 44 39 33 27 20 16 15 11 358 331 309 300 286 281 283 273 264 259 255 254 251 248 245 243 244 243 239 236 234 233 230 227 223 220 217 214 211 209 206 206 209 210 214 222 223 201 188 192 186 152 178 216 219 224 224 227 231 231 228 225 227 230 231 229 224 221 218 220
43 42 43 43 45 47 47 48 47 48 50 53 58 62 63 58 51 45 38 33 28 22 19 15 11 4 347 326 313 296 287 289 287 281 271 264 262 259 254 249 246 246 245 245 243 240 237 235 233 229 224 222 220 218 217 213 211 212 210 212 219 220 207 198 199 195 177 162 188 209 213 214 227 232 230 228 226 227 229 231 229 225 223 220 219
43 43 44 44 44 46 47 48 47 46 48 53 58 60 61 60 54 45 39 36 32 27 24 19 11 4 358 348 336 318 299 290 289 291 288 277 271 267 262 257 252 249 247 247 247 245 242 240 239 236 230 226 224 222 222 221 220 218 214 211 211 210 206 206 206 203 203 192 182 194 193 189 209 227 226 225 223 224 226 227 228 226 225 222 219
41 42 41 40 40 42 44 46 45 43 45 50 56 58 58 58 53 45 37 33 33 32 28 22 14 8 3 357 350 341 328 311 297 293 294 293 284 278 272 267 262 256 252 250 249 249 247 244 243 242 236 231 227 226 226 226 226 223 220 216 213 210 207 208 207 203 202 190 172 181 195 195 205 220 222 222 221 220 223 225 226 227 226 224 221